Location: Black Creek
(40.9000°S, 175.5500°E)
Time: 02:57:59
(UTC+00:00)

ATLAS 5 CENTAUR R/B - Pass Details

Date: 04 August 2024
Orbit: 412 x 1157 km, 63.3° (Epoch: 07 September)

Event Time Altitude Azimuth Distance (km) Brightness Sun altitude
Exits shadow 17:14:46 20° 208° (SSW) 2,325 4.2 -23.9°
Drops below altitude 10° 17:19:17 10° 167° (SSE) 2,853 5.0 -23.1°
Sets 17:22:37 0° 150° (SSE) 3,684 5.9 -22.5°
